Location: Audinghen
(50.8518°N, 1.6129°E)
Time: 17:10:21
(UTC+00:00)

ARIANE 5 R/B - Pass Details

Date: 07 August 2020
Orbit: 749 x 795 km, 98.6° (Epoch: 24 September)

Event Time Altitude Azimuth Distance (km) Brightness Sun altitude
Rises 02:05:52 0° 21° (NNE) 3,296 7.4 -17.3°
Reaches altitude 10° 02:08:24 10° 30° (NNE) 2,367 6.4 -17.1°
Maximum altitude 02:13:10 35° 96° (E) 1,274 3.9 -16.7°
Drops below altitude 10° 02:17:54 10° 161° (SSE) 2,360 4.7 -16.3°
Enters shadow 02:18:00 10° 162° (SSE) 2,393 4.7 -16.3°
